Location: Clermont
(50.2608°N, 4.3172°E)
Time: 16:38:39
(UTC+00:00)

SL-4 R/B - Pass Details

Date: 13 August 2020
Orbit: 428 x 665 km, 51.6° (Epoch: 18 September)

Event Time Altitude Azimuth Distance (km) Brightness Sun altitude
Rises 20:09:17 0° 252° (WSW) 2,711 6.1 -9.7°
Reaches altitude 10° 20:11:36 10° 252° (WSW) 1,776 5.1 -10.0°
Maximum altitude 20:15:37 87° 164° (SSE) 507 1.8 -10.5°
Drops below altitude 10° 20:19:20 10° 75° (ENE) 1,646 4.1 -11.0°
Enters shadow 20:20:23 - 75° (ENE) 2,071 4.6 -11.1°
